IRIDIUM 94 [P]

Last updated on April 19, 2018, 12:19 a.m. UTC

1 27374U 02005C   18108.24475940  .58469441 -85873-7  19282-4 0  9999
2 27374  86.2998 124.3001 0093641 344.5221  17.2855 16.61324468860162

Satellite is not in orbit.